TimeEDT,TemperatureF,Dew PointF,Humidity,Sea Level PressureIn,VisibilityMPH,Wind Direction,Wind SpeedMPH,Gust SpeedMPH,PrecipitationIn,Events,Conditions,WindDirDegrees,DateUTC
12:53 AM,73.0,70.0,90,29.86,7.0,WSW,13.8,-,N/A,,Mostly Cloudy,250,2012-09-01 04:53:00
1:53 AM,71.1,69.1,93,29.85,7.0,WSW,10.4,-,N/A,,Clear,240,2012-09-01 05:53:00
2:53 AM,72.0,66.9,84,29.86,9.0,West,11.5,-,N/A,,Clear,270,2012-09-01 06:53:00
3:53 AM,72.0,66.9,84,29.86,9.0,NW,6.9,-,N/A,,Clear,320,2012-09-01 07:53:00
4:53 AM,72.0,66.0,81,29.87,10.0,NW,8.1,-,N/A,,Clear,310,2012-09-01 08:53:00
5:53 AM,73.0,68.0,84,29.89,10.0,NNW,8.1,-,N/A,,Clear,340,2012-09-01 09:53:00
6:53 AM,72.0,66.0,81,29.92,10.0,North,10.4,-,N/A,,Clear,360,2012-09-01 10:53:00
7:53 AM,72.0,66.0,81,29.95,10.0,North,8.1,-,N/A,,Clear,10,2012-09-01 11:53:00
8:53 AM,73.0,66.9,81,29.96,10.0,NNE,13.8,-,N/A,,Partly Cloudy,30,2012-09-01 12:53:00
9:53 AM,75.0,66.9,76,29.98,10.0,NE,16.1,25.3,N/A,,Clear,40,2012-09-01 13:53:00
10:53 AM,75.9,66.9,74,29.99,10.0,NE,15.0,-,N/A,,Clear,50,2012-09-01 14:53:00
11:53 AM,75.9,66.0,71,30.00,10.0,NE,15.0,23.0,N/A,,Clear,50,2012-09-01 15:53:00
12:53 PM,75.0,64.0,69,30.01,10.0,NE,13.8,-,N/A,,Clear,50,2012-09-01 16:53:00
1:53 PM,73.9,63.0,68,30.02,10.0,NE,16.1,-,N/A,,Clear,40,2012-09-01 17:53:00
2:53 PM,72.0,63.0,73,30.03,10.0,NE,19.6,26.5,N/A,,Clear,40,2012-09-01 18:53:00
3:53 PM,72.0,60.1,66,30.03,10.0,NE,17.3,25.3,N/A,,Clear,50,2012-09-01 19:53:00
4:53 PM,71.1,60.1,68,30.04,10.0,ENE,16.1,23.0,N/A,,Clear,60,2012-09-01 20:53:00
5:53 PM,69.1,59.0,70,30.04,10.0,NE,10.4,-,N/A,,Clear,50,2012-09-01 21:53:00
6:53 PM,66.9,57.9,73,30.05,10.0,ENE,5.8,-,N/A,,Clear,70,2012-09-01 22:53:00
7:53 PM,63.0,57.9,84,30.07,10.0,NE,9.2,-,N/A,,Clear,40,2012-09-01 23:53:00
8:53 PM,62.1,57.9,86,30.09,10.0,NE,4.6,-,N/A,,Clear,50,2012-09-02 00:53:00
9:53 PM,64.0,59.0,84,30.10,10.0,NE,3.5,-,N/A,,Overcast,50,2012-09-02 01:53:00
10:53 PM,64.0,59.0,84,30.11,10.0,NE,5.8,-,N/A,,Mostly Cloudy,50,2012-09-02 02:53:00
11:53 PM,64.0,59.0,84,30.10,10.0,ENE,8.1,-,N/A,,Overcast,60,2012-09-02 03:53:00